Home   Weather   Schwäbisch Hall   Past weeks

Flag for Germany Past Weather in Schwäbisch Hall, Baden-Württemberg, Germany — Yesterday and Last 2 Weeks

Now
68 °F

Passing clouds.


Feels Like: 68 °F
Forecast: 56 / 80 °F
Wind: 5 mph from North

Location: Niederstetten

Current Time: Aug 30, 2016 at 9:15:55 PM

Latest Report: Aug 30, 2016 at 8:20 PM


Visibility: N/A

Pressure: 30.21 "Hg

Humidity: 49%

Dew Point: 48 °F

Location of Schwäbisch HallLocation

Past Weather in Schwäbisch Hall — Graph

°F

Schwäbisch Hall Temperature Yesterday

Maximum temperature yesterday: 77 °F (at 2:20 PM)
Minimum temperature yesterday: 63 °F (at 6:20 AM)
Average temperature yesterday: 69 °F

High & Low Weather Summary for the Past Weeks

 TemperatureHumidityPressure
High91 °F (Aug 27, 1:20 PM)100% (Aug 23, 5:20 AM)30.42 "Hg (Aug 23, 5:20 AM)
Low46 °F (Aug 18, 6:20 AM)27% (Aug 25, 3:20 PM)29.83 "Hg (Aug 18, 7:20 AM)
Average68 °F62%30.10 "Hg
* Reported Aug 15 7:20 PM — Aug 30 7:20 PM, Schwäbisch Hall, Weather by CustomWeather, © 2016

Note: Actual official high and low records may vary slightly from our data, if they occured in-between our weather recording intervals... More about our weather records

Advertising

Schwäbisch Hall Weather History for the Previous 24 Hours

Scroll right to see more
 ConditionsComfort  
Time TempWeatherWind HumidityBarometerVisibility
7:20 PM
Tue, Aug 30
72 °FPassing clouds.6 mph44%30.21 "HgN/A
6:20 PM73 °FPassing clouds.7 mph44%30.21 "HgN/A
5:20 PM73 °FPassing clouds.8 mph41%30.24 "HgN/A
4:20 PM75 °FPassing clouds.6 mph41%30.24 "HgN/A
3:20 PM73 °FPassing clouds.8 mph44%30.24 "HgN/A
2:20 PM72 °FPassing clouds.6 mph47%30.27 "HgN/A
1:20 PM72 °FPartly sunny.7 mph50%30.27 "HgN/A
12:20 PM72 °FPartly sunny.7 mph53%30.27 "HgN/A
11:20 AM70 °FPartly sunny.9 mph53%30.30 "HgN/A
10:20 AM66 °FScattered clouds.9 mph64%30.30 "HgN/A
9:20 AM64 °FScattered clouds.9 mph68%30.27 "HgN/A
8:20 AM59 °FPassing clouds.7 mph82%30.27 "HgN/A
7:20 AM55 °FPassing clouds.6 mph94%30.27 "HgN/A
6:20 AM54 °FPassing clouds.5 mph94%30.24 "HgN/A
5:20 AM55 °FCool.5 mph88%30.24 "HgN/A
4:20 AM57 °FCool.6 mph88%30.24 "HgN/A
3:20 AM59 °FCool.6 mph82%30.21 "HgN/A
2:20 AM59 °FPassing clouds.3 mph82%30.24 "HgN/A
1:20 AM61 °FPassing clouds.1 mph77%30.24 "HgN/A
12:20 AM63 °FPassing clouds.5 mph73%30.21 "HgN/A
11:20 PM
Mon, Aug 29
63 °FPassing clouds.5 mph73%30.21 "HgN/A
11:00 PM63 °FPassing clouds.5 mph73%30.21 "HgN/A
10:20 PM66 °FPassing clouds.5 mph64%30.18 "HgN/A
9:20 PM66 °FPassing clouds.3 mph64%30.18 "HgN/A
Weather by CustomWeather, © 2016

See weather overviewHow to use our weather pages